THY2FV LTFE-LTFM

Flight info

Callsign THY2FV
Flight time N/A
Altitude 36000
Route AKBUK UN618 DUGLA/N0483F370 UZ713 INBET
Aircraft B77W/H-SDE1E2E3FGHIJ2J3J4J5M1RWXY/LB1D1

Departure

Time 2026-04-24 14:34
Airport Milas Bodrum International Airport (LTFE)

Arrival

Time N/A
Airport İstanbul Airport (LTFM)
Time Latitude Longitude Altitude Speed Heading
2026-04-24 14:09 37.24372 27.67894 35 ft 0 kts 197°
2026-04-24 14:28 37.24373 27.67895 35 ft 2 kts 197°
2026-04-24 14:28 37.24397 27.67902 34 ft 4 kts 184°
2026-04-24 14:28 37.24423 27.67900 32 ft 4 kts 160°
2026-04-24 14:28 37.24444 27.67883 32 ft 4 kts 120°
2026-04-24 14:29 37.24449 27.67873 35 ft 0 kts 107°
2026-04-24 14:31 37.24442 27.67898 33 ft 8 kts 107°
2026-04-24 14:31 37.24426 27.67980 35 ft 10 kts 90°
2026-04-24 14:32 37.24470 27.68046 35 ft 11 kts 25°
2026-04-24 14:32 37.24547 27.68078 34 ft 12 kts 18°
2026-04-24 14:32 37.24633 27.68111 34 ft 13 kts 17°
2026-04-24 14:32 37.24720 27.68125 34 ft 13 kts 336°
2026-04-24 14:33 37.24757 27.68026 36 ft 13 kts 285°
2026-04-24 14:33 37.24812 27.67792 36 ft 61 kts 285°
2026-04-24 14:33 37.25021 27.66921 34 ft 143 kts 287°
2026-04-24 14:33 37.25372 27.65513 231 ft 187 kts 286°
2026-04-24 14:34 37.25767 27.63948 1204 ft 182 kts 287°
2026-04-24 14:34 37.26139 27.62468 2249 ft 181 kts 290°
2026-04-24 14:34 37.26540 27.60858 2711 ft 208 kts 290°
2026-04-24 14:34 37.26984 27.59007 2943 ft 236 kts 290°
2026-04-24 14:35 37.27468 27.56928 3409 ft 255 kts 289°
2026-04-24 14:35 37.27967 27.54758 4159 ft 263 kts 289°
2026-04-24 14:35 37.28494 27.52515 4833 ft 271 kts 289°
2026-04-24 14:35 37.29038 27.50223 5555 ft 276 kts 289°
2026-04-24 14:36 37.29608 27.47905 6370 ft 280 kts 294°
2026-04-24 14:36 37.30691 27.45920 7279 ft 278 kts 323°
2026-04-24 14:36 37.32384 27.44815 7992 ft 283 kts 349°
2026-04-24 14:36 37.34327 27.44545 8747 ft 283 kts
2026-04-24 14:37 37.36313 27.44484 9420 ft 286 kts
2026-04-24 14:37 37.38310 27.44435 10124 ft 287 kts
2026-04-24 14:37 37.40347 27.44381 10596 ft 300 kts
2026-04-24 14:37 37.42515 27.44305 10797 ft 323 kts 359°
2026-04-24 14:38 37.44840 27.44198 10983 ft 348 kts 358°
2026-04-24 14:38 37.47369 27.44062 11228 ft 377 kts 357°
2026-04-24 14:38 37.50055 27.43904 11887 ft 393 kts 357°
2026-04-24 14:38 37.52815 27.43739 12942 ft 400 kts 356°
2026-04-24 14:39 37.55615 27.43578 13965 ft 407 kts 356°
2026-04-24 14:39 37.58431 27.43415 14959 ft 412 kts 355°
2026-04-24 14:39 37.61315 27.43250 16003 ft 417 kts 355°
2026-04-24 14:39 37.64222 27.43082 17040 ft 421 kts 354°
2026-04-24 14:40 37.67169 27.42912 18028 ft 427 kts 354°
2026-04-24 14:40 37.70164 27.42738 18889 ft 433 kts 354°
2026-04-24 14:40 37.73191 27.42560 19693 ft 439 kts 354°
2026-04-24 14:40 37.76271 27.42379 20464 ft 445 kts 354°
2026-04-24 14:41 37.79398 27.42195 21244 ft 452 kts 354°
2026-04-24 14:41 37.82554 27.42008 22020 ft 457 kts 354°
2026-04-24 14:41 37.85751 27.41819 22792 ft 463 kts 354°
2026-04-24 14:41 37.89005 27.41627 23507 ft 470 kts 354°
2026-04-24 14:42 37.91167 27.41500 23902 ft 473 kts 353°
2026-04-24 14:42 37.95561 27.41241 24698 ft 480 kts 353°
2026-04-24 14:42 37.98920 27.41043 25278 ft 485 kts 353°
2026-04-24 14:42 38.02311 27.40841 25839 ft 490 kts 353°
2026-04-24 14:43 38.05742 27.40639 26393 ft 492 kts 352°
2026-04-24 14:43 38.08008 27.40511 26599 ft 496 kts 352°
2026-04-24 14:43 38.12624 27.40232 27212 ft 503 kts 352°
2026-04-24 14:43 38.14991 27.40088 27550 ft 505 kts 352°
2026-04-24 14:44 38.18518 27.39876 28030 ft 508 kts 352°
2026-04-24 14:44 38.22061 27.39665 28500 ft 512 kts 352°
2026-04-24 14:44 38.25632 27.39454 28920 ft 515 kts 352°
2026-04-24 14:44 38.29184 27.39243 29276 ft 519 kts 352°
2026-04-24 14:45 38.32802 27.39027 29673 ft 521 kts 352°
2026-04-24 14:45 38.36434 27.38811 30057 ft 522 kts 352°
2026-04-24 14:45 38.40062 27.38595 30448 ft 521 kts 353°
2026-04-24 14:45 38.43686 27.38381 30800 ft 521 kts 353°
2026-04-24 14:46 38.47331 27.38165 30886 ft 525 kts 353°
2026-04-24 14:46 38.54596 27.37732 30929 ft 519 kts 354°
2026-04-24 14:47 38.61799 27.37302 30934 ft 516 kts 354°
2026-04-24 14:47 38.68969 27.36869 30940 ft 515 kts 355°
2026-04-24 14:48 38.76072 27.36439 30945 ft 514 kts 356°
2026-04-24 14:48 38.83213 27.36006 30939 ft 513 kts 356°
2026-04-24 14:49 38.90341 27.35573 30944 ft 512 kts 357°
2026-04-24 14:49 38.97466 27.35140 30941 ft 511 kts 358°
2026-04-24 14:50 39.04573 27.34708 30941 ft 510 kts 358°
2026-04-24 14:50 39.11656 27.34277 30944 ft 509 kts 358°
2026-04-24 14:51 39.18722 27.33844 30949 ft 507 kts 358°
2026-04-24 14:51 39.25760 27.33413 30951 ft 506 kts 359°
2026-04-24 14:52 39.32737 27.32985 30955 ft 505 kts 359°
2026-04-24 14:52 39.39749 27.32553 30960 ft 504 kts 358°
2026-04-24 14:53 39.46747 27.32120 30961 ft 503 kts 358°
2026-04-24 14:53 39.53725 27.31687 30964 ft 501 kts 358°
2026-04-24 14:54 39.60685 27.31254 30962 ft 500 kts 358°
2026-04-24 14:54 39.67639 27.30820 30962 ft 499 kts 358°
2026-04-24 14:55 39.74544 27.30387 30964 ft 499 kts 359°
2026-04-24 14:55 39.81491 27.29949 30967 ft 499 kts 359°
2026-04-24 14:56 39.88433 27.29508 30974 ft 499 kts 359°
2026-04-24 14:56 39.95373 27.29061 30971 ft 498 kts 359°
2026-04-24 14:57 40.02291 27.28606 30977 ft 497 kts 359°
2026-04-24 14:57 40.09198 27.28141 30979 ft 496 kts 359°
2026-04-24 14:58 40.16030 27.28163 30986 ft 493 kts 11°
2026-04-24 14:58 40.22540 27.30862 30982 ft 490 kts 27°
2026-04-24 14:59 40.28239 27.35589 30978 ft 486 kts 36°
2026-04-24 14:59 40.33850 27.40633 30980 ft 489 kts 35°
2026-04-24 15:00 40.39479 27.45580 30978 ft 482 kts 34°
2026-04-24 15:00 40.42240 27.47970 30954 ft 468 kts 34°
2026-04-24 15:00 40.44962 27.50325 29944 ft 469 kts 34°
2026-04-24 15:00 40.47633 27.52623 29213 ft 460 kts 34°
2026-04-24 15:01 40.50287 27.54905 28470 ft 452 kts 34°
2026-04-24 15:01 40.52890 27.57148 27779 ft 444 kts 34°
2026-04-24 15:01 40.55461 27.59368 27098 ft 438 kts 34°
2026-04-24 15:01 40.58001 27.61565 26414 ft 432 kts 35°
2026-04-24 15:02 40.60498 27.63730 25769 ft 428 kts 34°
2026-04-24 15:02 40.62968 27.65872 25117 ft 424 kts 34°
2026-04-24 15:02 40.65422 27.68003 24483 ft 420 kts 34°
2026-04-24 15:02 40.67829 27.70094 23853 ft 417 kts 34°
2026-04-24 15:03 40.70279 27.72224 23152 ft 415 kts 34°
2026-04-24 15:03 40.72657 27.74292 22466 ft 412 kts 34°
2026-04-24 15:03 40.75039 27.76366 21841 ft 408 kts 34°
2026-04-24 15:03 40.77399 27.78421 21228 ft 404 kts 34°
2026-04-24 15:04 40.79734 27.80457 20625 ft 401 kts 34°
2026-04-24 15:04 40.82056 27.82484 20036 ft 398 kts 34°
2026-04-24 15:04 40.84357 27.84495 19452 ft 395 kts 33°
2026-04-24 15:04 40.86645 27.86494 18864 ft 393 kts 33°
2026-04-24 15:05 40.88922 27.88486 18278 ft 391 kts 33°
2026-04-24 15:05 40.91189 27.90470 17618 ft 389 kts 33°
2026-04-24 15:05 40.93438 27.92439 17009 ft 387 kts 33°
2026-04-24 15:05 40.95676 27.94401 16417 ft 384 kts 33°
2026-04-24 15:06 40.97888 27.96342 15847 ft 381 kts 34°
2026-04-24 15:06 41.00062 27.98252 15289 ft 379 kts 34°
2026-04-24 15:06 41.02276 28.00198 14703 ft 377 kts 34°
2026-04-24 15:06 41.04428 28.02091 14171 ft 375 kts 34°
2026-04-24 15:07 41.06592 28.03996 13575 ft 373 kts 34°
2026-04-24 15:07 41.08750 28.05895 12954 ft 371 kts 34°
2026-04-24 15:07 41.10890 28.07781 12392 ft 368 kts 34°
2026-04-24 15:07 41.13016 28.09655 11832 ft 365 kts 34°
2026-04-24 15:08 41.15127 28.11519 11323 ft 362 kts 34°
2026-04-24 15:08 41.17212 28.13361 10920 ft 355 kts 34°
2026-04-24 15:08 41.19227 28.15144 10778 ft 342 kts 34°
2026-04-24 15:08 41.21181 28.16877 10640 ft 329 kts 34°
2026-04-24 15:09 41.23013 28.18506 10472 ft 311 kts 35°
2026-04-24 15:09 41.24751 28.20057 10348 ft 290 kts 36°
2026-04-24 15:09 41.26368 28.21502 10220 ft 270 kts 36°
2026-04-24 15:09 41.27872 28.22845 10104 ft 251 kts 36°
2026-04-24 15:10 41.29310 28.24129 10053 ft 255 kts 36°
2026-04-24 15:10 41.30789 28.25443 9752 ft 254 kts 36°
2026-04-24 15:10 41.32233 28.26719 9446 ft 243 kts 36°
2026-04-24 15:10 41.33604 28.27930 9207 ft 229 kts 36°
2026-04-24 15:11 41.34920 28.29087 8961 ft 227 kts 36°
2026-04-24 15:11 41.36240 28.30249 8653 ft 226 kts 36°